DW7325 Weather Reports


Display with metric or nautical units.
time (UTC)temp
F
wind
direction
speed
MPH
gust
MPH
rain 1hr
in
rain 24hr
in
rain mn
in
humidity
%
barometer
mb
20260902192707 76 290 0.0 1.0 0.06 0.29 0.31 95 1017.4
20260902192600 76 290 0.0 1.0 0.06 0.29 0.30 95 1017.3
20260902192453 76 219 0.0 1.0 0.08 0.29 0.30 95 1017.3
20260902192349 76 203 0.0 1.0 0.09 0.29 0.30 95 1017.3
20260902191805 76 199 0.0 1.0 0.09 0.29 0.30 95 1017.2
20260902191700 76 199 0.0 2.0 0.04 0.29 0.28 95 1017.2
20260902191333 76 192 0.0 2.0 0.04 0.29 0.28 95 1017.3
20260902191230 76 208 0.0 2.0 0.04 0.27 0.28 94 1017.5
20260902191127 76 239 0.0 2.0 0.04 0.27 0.28 94 1017.5
20260902191020 76 239 0.0 2.0 0.04 0.27 0.27 94 1017.6
20260902190654 76 287 0.0 6.0 0.05 0.27 0.27 94 1017.5
20260902190327 76 287 0.0 6.0 0.06 0.27 0.27 94 1017.7
20260902190220 76 287 0.0 6.0 0.06 0.27 0.27 93 1017.7
20260902190118 76 287 0.0 6.0 0.08 0.27 0.27 93 1017.6
20260902190015 76 253 0.0 6.0 0.10 0.27 0.27 93 1017.5
20260902185910 76 334 0.0 6.0 0.12 0.27 0.27 93 1017.5
20260902185807 76 307 0.0 6.0 0.15 0.27 0.27 92 1017.4
20260902185700 76 280 1.0 6.0 0.21 0.27 0.27 92 1017.3
20260902185556 76 221 1.0 6.0 0.31 0.27 0.27 90 1017.1
20260902185452 77 221 1.0 6.0 0.31 0.26 0.27 90 1016.9
20260902185348 77 255 1.0 6.0 0.35 0.26 0.27 89 1016.9
20260902185245 77 13 1.0 6.0 0.35 0.26 0.27 89 1016.9
20260902185138 77 30 1.0 6.0 0.49 0.24 0.26 88 1016.9
20260902185031 78 168 2.0 6.0 0.66 0.21 0.25 88 1016.9
20260902184925 79 120 1.0 6.0 1.66 0.19 0.24 87 1017.0
20260902184821 79 51 1.0 6.0 1.93 0.14 0.21 86 1016.9
20260902184717 80 288 1.0 4.0 1.82 0.10 0.19 85 1016.8
20260902184611 80 332 1.0 4.0 2.88 0.08 0.15 86 1016.9
20260902184504 81 46 1.0 4.0 1.84 0.06 0.10 86 1016.8
20260902184358 81 103 0.0 3.0 2.11 0.03 0.06 86 1016.7
20260902184252 82 0 0.0 3.0 1.30 0.02 0.04 86 1016.8
20260902184145 82 315 0.0 3.0 0.08 0.02 0.02 87 1016.7
20260902184042 82 32 0.0 2.0 0.08 0.01 0.02 87 1016.6
20260902183936 83 5 0.0 2.0 0.00 0.01 0.01 84 1016.6
20260902183829 83 0 0.0 2.0 0.00 0.01 0.01 82 1016.5
20260902183727 83 195 0.0 2.0 0.00 0.01 0.01 86 1016.6
20260902183625 83 107 0.0 1.0 0.00 0.01 0.01 84 1016.6
20260902183519 83 31 0.0 1.0 0.00 0.01 0.01 83 1016.6
20260902183414 84 31 0.0 1.0 0.00 0.00 0.01 82 1016.6
20260902183047 85 103 0.0 1.0 0.00 0.00 0.00 78 1016.6
20260902182717 87 117 0.0 2.0 0.00 0.00 0.00 72 1016.5
20260902182614 88 136 0.0 2.0 0.00 0.00 0.00 73 1016.5
20260902182510 88 136 0.0 2.0 0.00 0.00 0.00 69 1016.4
20260902182406 89 136 0.0 2.0 0.00 0.00 0.00 68 1016.4
20260902182300 89 136 0.0 2.0 0.00 0.00 0.00 71 1016.4
20260902182154 89 145 0.0 2.0 0.00 0.00 0.00 69 1016.3
20260902182050 89 145 0.0 2.0 0.00 0.00 0.00 67 1016.3
20260902181942 89 155 0.0 2.0 0.00 0.00 0.00 67 1016.3
20260902181836 90 195 0.0 2.0 0.00 0.00 0.00 68 1016.4
20260902181734 90 157 0.0 2.0 0.00 0.00 0.00 66 1016.3
20260902181632 90 69 0.0 2.0 0.00 0.00 0.00 65 1016.3
20260902181528 90 205 0.0 2.0 0.00 0.00 0.00 65 1016.3
20260902181426 90 71 0.0 2.0 0.00 0.00 0.00 66 1016.3
20260902181101 90 42 0.0 2.0 0.00 0.00 0.00 67 1016.3
20260902180957 91 31 0.0 2.0 0.00 0.00 0.00 66 1016.3
20260902180635 91 19 0.0 2.0 0.00 0.00 0.00 65 1016.3
20260902180531 91 90 0.0 2.0 0.00 0.00 0.00 65 1016.3
20260902180424 91 26 0.0 2.0 0.00 0.00 0.00 64 1016.3
20260902175837 92 59 0.0 2.0 0.00 0.00 0.00 64 1016.3
20260902175255 92 22 0.0 2.0 0.00 0.00 0.00 64 1016.5
20260902175149 92 313 0.0 2.0 0.00 0.00 0.00 63 1016.6
20260902175044 92 185 0.0 2.0 0.00 0.00 0.00 63 1016.6
20260902174939 92 220 0.0 2.0 0.00 0.00 0.00 61 1016.5
20260902174832 92 75 0.0 2.0 0.00 0.00 0.00 61 1016.5
20260902174726 92 60 0.0 2.0 0.00 0.00 0.00 65 1016.6
20260902174618 92 28 0.0 2.0 0.00 0.00 0.00 63 1016.6
20260902174512 92 5 0.0 2.0 0.00 0.00 0.00 64 1016.6
20260902174408 91 63 0.0 2.0 0.00 0.00 0.00 63 1016.6
20260902174303 91 69 0.0 2.0 0.00 0.00 0.00 63 1016.7
20260902174200 91 229 0.0 2.0 0.00 0.00 0.00 64 1016.7
20260902174055 91 229 0.0 2.0 0.00 0.00 0.00 62 1016.7
20260902173252 91 40 0.0 2.0 0.00 0.00 0.00 63 1016.8
20260902173148 91 5 0.0 2.0 0.00 0.00 0.00 62 1016.8
20260902173042 91 30 0.0 2.0 0.00 0.00 0.00 64 1016.8
20260902172939 91 94 0.0 1.0 0.00 0.00 0.00 65 1016.8
20260902172832 91 210 0.0 2.0 0.00 0.00 0.00 66 1016.8
20260902172729 91 55 0.0 2.0 0.00 0.00 0.00 64 1016.8
20260902172404 91 105 0.0 2.0 0.00 0.00 0.00 61 1016.8
20260902172259 91 105 0.0 2.0 0.00 0.00 0.00 63 1016.8
20260902172153 91 105 0.0 2.0 0.00 0.00 0.00 63 1016.8
20260902172049 91 111 0.0 2.0 0.00 0.00 0.00 65 1016.8
20260902171946 90 259 0.0 2.0 0.00 0.00 0.00 64 1016.8
20260902171838 90 335 0.0 2.0 0.00 0.00 0.00 65 1016.9
20260902171731 90 355 0.0 2.0 0.00 0.00 0.00 65 1016.9
20260902171623 91 355 0.0 2.0 0.00 0.00 0.00 65 1016.8
20260902171518 91 72 0.0 2.0 0.00 0.00 0.00 65 1016.9
20260902171412 91 72 0.0 2.0 0.00 0.00 0.00 63 1016.9
20260902171046 91 160 0.0 2.0 0.00 0.00 0.00 64 1016.9
20260902170939 91 160 0.0 2.0 0.00 0.00 0.00 65 1017.0
20260902170834 91 132 0.0 1.0 0.00 0.00 0.00 64 1017.0
20260902170729 91 91 0.0 1.0 0.00 0.00 0.00 64 1017.0
20260902170627 91 91 0.0 1.0 0.00 0.00 0.00 63 1017.0
20260902170521 91 161 0.0 1.0 0.00 0.00 0.00 63 1017.0
20260902170419 91 209 0.0 1.0 0.00 0.00 0.00 63 1017.0
20260902170313 91 169 0.0 1.0 0.00 0.00 0.00 64 1017.0
20260902165947 91 130 0.0 2.0 0.00 0.00 0.00 67 1017.0
20260902165842 90 78 0.0 2.0 0.00 0.00 0.00 67 1017.0
20260902165739 90 112 0.0 2.0 0.00 0.00 0.00 66 1017.0
20260902165635 90 112 0.0 2.0 0.00 0.00 0.00 65 1017.0
20260902165527 90 250 0.0 2.0 0.00 0.00 0.00 64 1017.0
20260902165423 90 176 0.0 2.0 0.00 0.00 0.00 64 1017.1
20260902165316 90 291 0.0 2.0 0.00 0.00 0.00 64 1017.1
20260902165213 90 163 0.0 2.0 0.00 0.00 0.00 64 1017.1
20260902165107 90 170 0.0 2.0 0.00 0.00 0.00 64 1017.2
20260902165004 90 346 0.0 2.0 0.00 0.00 0.00 62 1017.1
20260902164858 91 214 0.0 2.0 0.00 0.00 0.00 61 1017.1
20260902164754 91 190 0.0 2.0 0.00 0.00 0.00 64 1017.1
20260902164428 91 146 0.0 2.0 0.00 0.00 0.00 61 1017.1
20260902164323 91 146 0.0 2.0 0.00 0.00 0.00 60 1017.2
20260902164002 90 338 0.0 1.0 0.00 0.00 0.00 66 1017.2
20260902163858 90 337 0.0 1.0 0.00 0.00 0.00 64 1017.1
20260902163533 90 351 0.0 1.0 0.00 0.00 0.00 65 1017.1
20260902163430 90 69 0.0 2.0 0.00 0.00 0.00 65 1017.1
20260902163325 89 227 0.0 2.0 0.00 0.00 0.00 64 1017.1
20260902163218 89 227 0.0 2.0 0.00 0.00 0.00 66 1017.1
20260902162856 89 313 0.0 2.0 0.00 0.00 0.00 65 1017.1
20260902162753 89 338 0.0 2.0 0.00 0.00 0.00 66 1017.1
20260902162434 90 122 0.0 2.0 0.00 0.00 0.00 63 1017.0
20260902162329 89 122 0.0 2.0 0.00 0.00 0.00 64 1017.0
20260902162224 89 122 0.0 2.0 0.00 0.00 0.00 63 1017.0
20260902162121 89 122 0.0 2.0 0.00 0.00 0.00 62 1017.0
20260902162017 89 109 0.0 2.0 0.00 0.00 0.00 63 1017.0
20260902161913 88 111 0.0 2.0 0.00 0.00 0.00 64 1017.1
20260902161805 88 51 0.0 2.0 0.00 0.00 0.00 64 1017.1
20260902161226 88 11 0.0 1.0 0.00 0.00 0.00 65 1017.1
20260902161119 89 261 0.0 1.0 0.00 0.00 0.00 65 1017.1
20260902161014 89 228 0.0 1.0 0.00 0.00 0.00 67 1017.1
20260902160912 89 228 0.0 1.0 0.00 0.00 0.00 69 1017.1
20260902160547 89 201 0.0 3.0 0.00 0.00 0.00 66 1017.2
20260902160445 89 50 0.0 3.0 0.00 0.00 0.00 65 1017.2
20260902160338 88 50 0.0 3.0 0.00 0.00 0.00 64 1017.2
20260902160233 88 296 0.0 3.0 0.00 0.00 0.00 67 1017.2
20260902155912 88 267 0.0 3.0 0.00 0.00 0.00 66 1017.2
20260902155806 88 198 0.0 3.0 0.00 0.00 0.00 68 1017.2
20260902155703 88 188 0.0 3.0 0.00 0.00 0.00 68 1017.2
20260902155558 88 188 0.0 3.0 0.00 0.00 0.00 66 1017.2
20260902155453 88 188 0.0 3.0 0.00 0.00 0.00 67 1017.2
20260902155348 88 182 0.0 3.0 0.00 0.00 0.00 68 1017.1
20260902155244 88 158 0.0 3.0 0.00 0.00 0.00 70 1017.1
20260902155139 88 165 0.0 3.0 0.00 0.00 0.00 68 1017.1
20260902155034 88 150 0.0 3.0 0.00 0.00 0.00 69 1017.1
20260902154929 88 242 0.0 3.0 0.00 0.00 0.00 68 1017.1
20260902154826 88 244 0.0 3.0 0.00 0.00 0.00 67 1017.1
20260902154503 88 252 0.0 2.0 0.00 0.00 0.00 69 1017.1
20260902154358 88 180 0.0 2.0 0.00 0.00 0.00 69 1017.1
20260902154255 88 301 0.0 2.0 0.00 0.00 0.00 67 1017.1
20260902154150 88 15 0.0 2.0 0.00 0.00 0.00 68 1017.1
20260902154043 88 179 0.0 2.0 0.00 0.00 0.00 66 1017.2
20260902153941 88 190 0.0 2.0 0.00 0.00 0.00 65 1017.1
20260902153834 88 236 0.0 2.0 0.00 0.00 0.00 66 1017.1
20260902153730 88 198 0.0 2.0 0.00 0.00 0.00 66 1017.1
20260902153623 88 209 0.0 2.0 0.00 0.00 0.00 65 1017.1
20260902153520 88 210 0.0 2.0 0.00 0.00 0.00 68 1017.1
20260902153417 89 58 0.0 2.0 0.00 0.00 0.00 66 1017.1
20260902153312 89 58 0.0 2.0 0.00 0.00 0.00 65 1017.1
20260902152946 90 112 0.0 2.0 0.00 0.00 0.00 65 1017.0
20260902152841 90 102 0.0 2.0 0.00 0.00 0.00 65 1017.0
20260902152735 90 163 0.0 2.0 0.00 0.00 0.00 65 1017.0
20260902152630 90 163 0.0 2.0 0.00 0.00 0.00 64 1017.0
20260902152525 90 256 0.0 2.0 0.00 0.00 0.00 65 1017.0
20260902152418 90 126 0.0 2.0 0.00 0.00 0.00 67 1017.1
20260902152310 90 120 0.0 2.0 0.00 0.00 0.00 66 1017.1
20260902152207 90 96 0.0 2.0 0.00 0.00 0.00 66 1017.1
20260902152100 89 317 0.0 2.0 0.00 0.00 0.00 66 1017.2
20260902151516 89 244 0.0 1.0 0.00 0.00 0.00 69 1017.2
20260902151408 89 275 0.0 1.0 0.00 0.00 0.00 68 1017.2
20260902151044 89 155 0.0 1.0 0.00 0.00 0.00 68 1017.1
20260902150937 89 230 0.0 1.0 0.00 0.00 0.00 68 1017.1
20260902150833 89 242 0.0 1.0 0.00 0.00 0.00 67 1017.1
20260902150725 89 202 0.0 2.0 0.00 0.00 0.00 66 1017.1
20260902150622 89 205 0.0 2.0 0.00 0.00 0.00 66 1017.1
20260902150518 89 221 0.0 2.0 0.00 0.00 0.00 66 1017.1
20260902150411 88 241 0.0 2.0 0.00 0.00 0.00 66 1017.2
20260902150049 88 195 0.0 2.0 0.00 0.00 0.00 65 1017.2
20260902145945 88 195 0.0 2.0 0.00 0.00 0.00 65 1017.2
20260902145615 88 219 0.0 2.0 0.00 0.00 0.00 65 1017.2
20260902145512 88 219 0.0 2.0 0.00 0.00 0.00 65 1017.2
20260902145408 88 287 0.0 2.0 0.00 0.00 0.00 65 1017.2
20260902145306 87 205 0.0 2.0 0.00 0.00 0.00 65 1017.2
20260902145157 87 90 0.0 2.0 0.00 0.00 0.00 66 1017.1
20260902145050 87 90 0.0 2.0 0.00 0.00 0.00 67 1017.1
20260902144945 87 90 0.0 2.0 0.00 0.00 0.00 68 1017.1
20260902144838 87 90 0.0 2.0 0.00 0.00 0.00 69 1017.1
20260902144730 87 55 0.0 0.0 0.00 0.00 0.00 69 1017.1
20260902144406 87 85 0.0 0.0 0.00 0.00 0.00 71 1017.1
20260902144300 87 85 0.0 0.0 0.00 0.00 0.00 72 1017.1
20260902143935 86 85 0.0 0.0 0.00 0.00 0.00 73 1017.1
20260902143829 86 85 0.0 1.0 0.00 0.00 0.00 72 1017.1
20260902143508 86 85 0.0 1.0 0.00 0.00 0.00 73 1017.0
20260902143403 86 350 0.0 0.0 0.00 0.00 0.00 72 1017.0
20260902143259 86 350 0.0 1.0 0.00 0.00 0.00 73 1017.0
20260902143154 86 350 0.0 1.0 0.00 0.00 0.00 73 1017.0
20260902143047 86 350 0.0 0.0 0.00 0.00 0.00 72 1017.0
20260902142506 85 24 0.0 2.0 0.00 0.00 0.00 72 1017.0
20260902142139 85 26 0.0 2.0 0.00 0.00 0.00 73 1017.1
20260902142033 85 21 0.0 2.0 0.00 0.00 0.00 73 1017.0
20260902141929 85 113 0.0 0.0 0.00 0.00 0.00 73 1017.0
20260902141821 85 205 0.0 0.0 0.00 0.00 0.00 73 1017.0
20260902141717 85 205 0.0 1.0 0.00 0.00 0.00 73 1017.0
20260902141611 85 232 0.0 1.0 0.00 0.00 0.00 73 1017.0
20260902141503 85 320 0.0 1.0 0.00 0.00 0.00 72 1017.1
20260902141141 84 148 0.0 0.0 0.00 0.00 0.00 73 1017.2
20260902141035 84 148 0.0 2.0 0.00 0.00 0.00 73 1017.2
20260902140931 84 148 0.0 2.0 0.00 0.00 0.00 73 1017.2
20260902140608 83 44 0.0 1.0 0.00 0.00 0.00 75 1017.3
20260902140500 83 44 0.0 1.0 0.00 0.00 0.00 75 1017.2
20260902140356 83 44 0.0 1.0 0.00 0.00 0.00 77 1017.1
20260902140250 83 44 0.0 1.0 0.00 0.00 0.00 77 1017.1
20260902140143 83 174 0.0 0.0 0.00 0.00 0.00 78 1017.1
20260902140035 83 174 0.0 0.0 0.00 0.00 0.00 78 1017.1
20260902135715 82 160 0.0 0.0 0.00 0.00 0.00 79 1017.1
20260902135607 82 160 0.0 0.0 0.00 0.00 0.00 78 1017.1
20260902135506 82 159 0.0 1.0 0.00 0.00 0.00 78 1017.1
20260902135359 82 159 0.0 1.0 0.00 0.00 0.00 78 1017.0
20260902135034 81 22 0.0 0.0 0.00 0.00 0.00 80 1017.0
20260902134932 81 22 0.0 0.0 0.00 0.00 0.00 79 1017.0
20260902134825 81 144 0.0 0.0 0.00 0.00 0.00 80 1017.0
20260902134718 81 144 0.0 0.0 0.00 0.00 0.00 80 1017.1
20260902134611 81 155 0.0 0.0 0.00 0.00 0.00 80 1017.0
20260902134503 81 245 0.0 0.0 0.00 0.00 0.00 80 1016.9
20260902134356 81 205 0.0 0.0 0.00 0.00 0.00 80 1017.0
20260902134252 81 211 0.0 0.0 0.00 0.00 0.00 82 1016.9
20260902134147 80 211 0.0 1.0 0.00 0.00 0.00 82 1016.9
20260902133822 80 71 0.0 0.0 0.00 0.00 0.00 83 1017.0
20260902133720 80 155 0.0 0.0 0.00 0.00 0.00 83 1017.0
20260902133613 80 155 0.0 0.0 0.00 0.00 0.00 82 1017.0
20260902133249 79 155 0.0 0.0 0.00 0.00 0.00 83 1017.0
20260902133144 79 155 0.0 0.0 0.00 0.00 0.00 83 1017.0
20260902133038 79 155 0.0 0.0 0.00 0.00 0.00 83 1017.1
20260902132934 79 155 0.0 0.0 0.00 0.00 0.00 83 1017.0
20260902132827 79 155 0.0 0.0 0.00 0.00 0.00 83 1017.0
20260902132721 78 155 0.0 0.0 0.00 0.00 0.00 83 1017.0
20260902132616 78 155 0.0 0.0 0.00 0.00 0.00 83 1017.0
20260902132510 78 155 0.0 1.0 0.00 0.00 0.00 84 1017.1
20260902132405 78 155 0.0 1.0 0.00 0.00 0.00 84 1017.0
20260902132043 77 241 0.0 1.0 0.00 0.00 0.00 86 1017.0
20260902131940 77 241 0.0 1.0 0.00 0.00 0.00 86 1017.0
20260902131835 77 222 0.0 1.0 0.00 0.00 0.00 87 1017.0
20260902131730 77 217 0.0 1.0 0.00 0.00 0.00 88 1016.9
20260902131628 77 265 0.0 1.0 0.00 0.00 0.00 88 1016.9
20260902131522 77 265 0.0 1.0 0.00 0.00 0.00 88 1016.9
20260902131159 77 0 0.0 0.0 0.00 0.00 0.00 90 1017.0
20260902131052 76 0 0.0 0.0 0.00 0.00 0.00 90 1017.0
20260902130945 76 0 0.0 0.0 0.00 0.00 0.00 90 1016.9
20260902130839 76 0 0.0 0.0 0.00 0.00 0.00 90 1016.9
20260902130730 76 0 0.0 0.0 0.00 0.00 0.00 90 1016.9
20260902130628 76 0 0.0 0.0 0.00 0.00 0.00 90 1016.9
20260902130301 76 0 0.0 0.0 0.00 0.00 0.00 90 1016.9
20260902130157 76 0 0.0 0.0 0.00 0.00 0.00 90 1016.9
20260902130052 76 0 0.0 0.0 0.00 0.00 0.00 90 1016.8
20260902125948 76 0 0.0 0.0 0.00 0.00 0.00 90 1016.8
20260902125842 76 0 0.0 0.0 0.00 0.00 0.00 90 1016.9
20260902125736 76 0 0.0 0.0 0.00 0.00 0.00 91 1016.9
20260902125630 76 0 0.0 0.0 0.00 0.00 0.00 90 1016.9
20260902125521 76 0 0.0 0.0 0.00 0.00 0.00 91 1016.9
20260902125419 76 0 0.0 0.0 0.00 0.00 0.00 91 1016.9
20260902125057 75 0 0.0 0.0 0.00 0.00 0.00 91 1017.0
20260902124953 75 0 0.0 0.0 0.00 0.00 0.00 91 1017.0
20260902124847 75 0 0.0 0.0 0.00 0.00 0.00 91 1017.0
20260902124519 75 0 0.0 0.0 0.00 0.00 0.00 91 1017.0
20260902124411 75 0 0.0 0.0 0.00 0.00 0.00 91 1017.0
20260902124309 75 0 0.0 0.0 0.00 0.00 0.00 91 1017.0
20260902124205 75 0 0.0 0.0 0.00 0.00 0.00 91 1016.9
20260902124059 75 0 0.0 0.0 0.00 0.00 0.00 92 1016.9
20260902123956 75 0 0.0 0.0 0.00 0.00 0.00 92 1016.9
20260902123635 75 0 0.0 0.0 0.00 0.00 0.00 92 1016.9
20260902123531 75 0 0.0 0.0 0.00 0.00 0.00 92 1016.9
20260902123209 75 0 0.0 0.0 0.00 0.00 0.00 91 1016.9
20260902123107 75 0 0.0 0.0 0.00 0.00 0.00 91 1016.9
20260902123002 75 0 0.0 0.0 0.00 0.00 0.00 91 1016.8
20260902122856 75 0 0.0 0.0 0.00 0.00 0.00 91 1016.8
20260902122754 75 0 0.0 0.0 0.00 0.00 0.00 91 1016.8
20260902122425 75 0 0.0 0.0 0.00 0.00 0.00 91 1016.7
20260902122323 75 0 0.0 0.0 0.00 0.00 0.00 91 1016.6
20260902121958 74 0 0.0 0.0 0.00 0.00 0.00 91 1016.7
20260902121856 74 0 0.0 0.0 0.00 0.00 0.00 91 1016.7
20260902121751 74 0 0.0 0.0 0.00 0.00 0.00 91 1016.8
20260902121647 74 0 0.0 0.0 0.00 0.00 0.00 91 1016.8
20260902121541 74 0 0.0 0.0 0.00 0.00 0.00 91 1016.8
20260902120738 74 0 0.0 0.0 0.00 0.00 0.00 91 1016.8
20260902120632 74 0 0.0 0.0 0.00 0.00 0.00 91 1016.8
20260902120305 74 0 0.0 0.0 0.00 0.00 0.00 91 1016.8
20260902120159 74 0 0.0 0.0 0.00 0.00 0.00 91 1016.9
20260902120056 74 0 0.0 0.0 0.00 0.00 0.00 91 1016.9
20260902115951 74 0 0.0 0.0 0.00 0.00 0.00 91 1016.9
20260902115845 74 0 0.0 0.0 0.00 0.00 0.00 91 1016.9
20260902115739 74 0 0.0 0.0 0.00 0.00 0.00 91 1017.0
20260902115636 74 0 0.0 0.0 0.00 0.00 0.00 91 1017.0
20260902115313 74 0 0.0 0.0 0.00 0.00 0.00 91 1017.0
20260902114953 74 0 0.0 0.0 0.00 0.00 0.00 91 1016.8
20260902114412 74 0 0.0 0.0 0.00 0.00 0.00 90 1016.8
20260902114309 74 0 0.0 0.0 0.00 0.00 0.00 90 1016.8
20260902114202 74 0 0.0 0.0 0.00 0.00 0.00 90 1016.8
20260902114100 74 0 0.0 0.0 0.00 0.00 0.00 90 1016.9
20260902113956 74 0 0.0 0.0 0.00 0.00 0.00 90 1016.8
20260902113852 74 0 0.0 0.0 0.00 0.00 0.00 90 1016.8
20260902113745 74 0 0.0 0.0 0.00 0.00 0.00 90 1016.8
20260902113638 74 0 0.0 0.0 0.00 0.00 0.00 90 1016.8
20260902113533 74 0 0.0 0.0 0.00 0.00 0.00 90 1016.7
20260902113431 74 0 0.0 0.0 0.00 0.00 0.00 90 1016.7
20260902113326 74 0 0.0 0.0 0.00 0.00 0.00 90 1016.7
20260902113002 74 0 0.0 0.0 0.00 0.00 0.00 89 1016.6
20260902112900 74 0 0.0 0.0 0.00 0.00 0.00 89 1016.5
20260902112758 74 0 0.0 0.0 0.00 0.00 0.00 89 1016.5
20260902112656 74 0 0.0 0.0 0.00 0.00 0.00 89 1016.4
20260902112550 74 0 0.0 0.0 0.00 0.00 0.00 89 1016.5
20260902112443 74 0 0.0 0.0 0.00 0.00 0.00 89 1016.5
20260902112121 74 0 0.0 0.0 0.00 0.00 0.00 89 1016.5
20260902112019 74 0 0.0 0.0 0.00 0.00 0.00 89 1016.6
20260902111655 74 0 0.0 0.0 0.00 0.00 0.00 88 1016.6
20260902111552 74 0 0.0 0.0 0.00 0.00 0.00 88 1016.6
20260902111445 74 0 0.0 0.0 0.00 0.00 0.00 88 1016.6
20260902110858 74 0 0.0 0.0 0.00 0.00 0.00 88 1016.6
20260902110312 74 0 0.0 0.0 0.00 0.00 0.00 88 1016.6
20260902105948 75 0 0.0 0.0 0.00 0.00 0.00 88 1016.8
20260902105844 75 0 0.0 0.0 0.00 0.00 0.00 88 1016.8
20260902105736 75 0 0.0 0.0 0.00 0.00 0.00 88 1016.8
20260902105630 75 0 0.0 0.0 0.00 0.00 0.00 88 1016.8
20260902105048 75 0 0.0 0.0 0.00 0.00 0.00 87 1016.7
20260902104943 75 0 0.0 0.0 0.00 0.00 0.00 87 1016.7
20260902104838 75 0 0.0 0.0 0.00 0.00 0.00 88 1016.6
20260902104736 75 0 0.0 0.0 0.00 0.00 0.00 88 1016.6
20260902104633 75 0 0.0 0.0 0.00 0.00 0.00 87 1016.6
20260902104527 75 0 0.0 0.0 0.00 0.00 0.00 87 1016.6
20260902104424 75 0 0.0 0.0 0.00 0.00 0.00 88 1016.6
20260902104321 75 0 0.0 0.0 0.00 0.00 0.00 87 1016.6
20260902104218 75 0 0.0 0.0 0.00 0.00 0.00 87 1016.6
20260902104110 75 0 0.0 0.0 0.00 0.00 0.00 88 1016.6
20260902104003 75 0 0.0 0.0 0.00 0.00 0.00 87 1016.6
20260902103900 75 0 0.0 0.0 0.00 0.00 0.00 88 1016.6
20260902103756 75 0 0.0 0.0 0.00 0.00 0.00 88 1016.6
20260902103650 75 0 0.0 0.0 0.00 0.00 0.00 88 1016.6
20260902103324 75 0 0.0 0.0 0.00 0.00 0.00 88 1016.6
20260902103217 75 0 0.0 0.0 0.00 0.00 0.00 88 1016.7
20260902103114 75 0 0.0 0.0 0.00 0.00 0.00 87 1016.7
20260902103012 75 0 0.0 0.0 0.00 0.00 0.00 87 1016.7
20260902102907 75 0 0.0 0.0 0.00 0.00 0.00 87 1016.7
20260902102803 75 0 0.0 0.0 0.00 0.00 0.00 87 1016.7
20260902102700 75 0 0.0 0.0 0.00 0.00 0.00 87 1016.7
20260902102334 75 0 0.0 0.0 0.00 0.00 0.00 87 1016.6
20260902102232 75 0 0.0 0.0 0.00 0.00 0.00 87 1016.6
20260902102130 75 0 0.0 0.0 0.00 0.00 0.00 87 1016.6
20260902102024 75 0 0.0 0.0 0.00 0.00 0.00 87 1016.5
20260902101922 75 0 0.0 0.0 0.00 0.00 0.00 87 1016.5
20260902101820 75 0 0.0 0.0 0.00 0.00 0.00 87 1016.5
20260902101714 75 0 0.0 0.0 0.00 0.00 0.00 87 1016.6
20260902101609 75 0 0.0 0.0 0.00 0.00 0.00 87 1016.6
20260902101502 75 0 0.0 0.0 0.00 0.00 0.00 87 1016.5
20260902101355 75 0 0.0 0.0 0.00 0.00 0.00 87 1016.5
20260902101248 75 0 0.0 0.0 0.00 0.00 0.00 87 1016.5
20260902101145 75 0 0.0 0.0 0.00 0.00 0.00 87 1016.5
20260902101038 75 0 0.0 0.0 0.00 0.00 0.00 87 1016.5
20260902100935 75 0 0.0 0.0 0.00 0.00 0.00 87 1016.4
20260902100831 75 0 0.0 0.0 0.00 0.00 0.00 87 1016.4
20260902100729 75 0 0.0 0.0 0.00 0.00 0.00 87 1016.4
20260902100624 75 0 0.0 0.0 0.00 0.00 0.00 86 1016.4
20260902100517 75 0 0.0 0.0 0.00 0.00 0.00 86 1016.4
20260902100411 75 0 0.0 0.0 0.00 0.00 0.00 86 1016.4
20260902100309 75 0 0.0 0.0 0.00 0.00 0.00 86 1016.4
20260902095948 75 0 0.0 0.0 0.00 0.00 0.00 86 1016.3
20260902095845 75 0 0.0 0.0 0.00 0.00 0.00 86 1016.4
20260902095738 75 0 0.0 0.0 0.00 0.00 0.00 86 1016.4
20260902095633 75 0 0.0 0.0 0.00 0.00 0.00 86 1016.3
20260902095309 75 0 0.0 0.0 0.00 0.00 0.00 86 1016.3
20260902095206 75 0 0.0 0.0 0.00 0.00 0.00 86 1016.3
20260902095059 75 0 0.0 0.0 0.00 0.00 0.00 86 1016.2
20260902094955 75 0 0.0 0.0 0.00 0.00 0.00 86 1016.2
20260902094849 75 0 0.0 0.0 0.00 0.00 0.00 86 1016.2
20260902094740 75 0 0.0 0.0 0.00 0.00 0.00 86 1016.2
20260902094635 75 0 0.0 0.0 0.00 0.00 0.00 86 1016.2
20260902094529 75 0 0.0 0.0 0.00 0.00 0.00 86 1016.2
20260902094424 75 0 0.0 0.0 0.00 0.00 0.00 86 1016.2
20260902094100 75 0 0.0 0.0 0.00 0.00 0.00 87 1016.3
20260902093736 75 0 0.0 0.0 0.00 0.00 0.00 87 1016.2
20260902093632 75 0 0.0 0.0 0.00 0.00 0.00 87 1016.2
20260902093526 75 0 0.0 0.0 0.00 0.00 0.00 87 1016.2
20260902093421 75 0 0.0 0.0 0.00 0.00 0.00 87 1016.2
20260902093318 75 0 0.0 0.0 0.00 0.00 0.00 87 1016.2
20260902093212 75 0 0.0 0.0 0.00 0.00 0.00 87 1016.2
20260902093107 76 0 0.0 0.0 0.00 0.00 0.00 86 1016.2
20260902093000 76 0 0.0 0.0 0.00 0.00 0.00 87 1016.2
20260902092855 75 0 0.0 0.0 0.00 0.00 0.00 87 1016.2
20260902092748 76 0 0.0 0.0 0.00 0.00 0.00 87 1016.2
20260902092646 76 0 0.0 0.0 0.00 0.00 0.00 87 1016.2
20260902092544 76 0 0.0 0.0 0.00 0.00 0.00 87 1016.2
20260902092442 76 0 0.0 0.0 0.00 0.00 0.00 87 1016.2
20260902092116 76 0 0.0 0.0 0.00 0.00 0.00 87 1016.2
20260902092011 76 0 0.0 0.0 0.00 0.00 0.00 87 1016.2
20260902091903 76 0 0.0 0.0 0.00 0.00 0.00 86 1016.2
20260902091757 76 0 0.0 0.0 0.00 0.00 0.00 86 1016.2
20260902091654 76 0 0.0 0.0 0.00 0.00 0.00 86 1016.2
20260902091551 76 0 0.0 0.0 0.00 0.00 0.00 86 1016.2
20260902091447 76 0 0.0 0.0 0.00 0.00 0.00 86 1016.2
20260902091122 76 0 0.0 0.0 0.00 0.00 0.00 87 1016.1
20260902091016 76 0 0.0 0.0 0.00 0.00 0.00 87 1016.2
20260902090913 76 0 0.0 0.0 0.00 0.00 0.00 87 1016.1
20260902090546 76 0 0.0 0.0 0.00 0.00 0.00 87 1016.2
20260902090225 76 0 0.0 0.0 0.00 0.00 0.00 87 1016.2
20260902090121 76 0 0.0 0.0 0.00 0.00 0.00 86 1016.2
20260902085756 76 0 0.0 0.0 0.00 0.00 0.00 86 1016.1
20260902085429 76 0 0.0 0.0 0.00 0.00 0.00 86 1016.1
20260902085107 76 0 0.0 0.0 0.00 0.00 0.00 86 1016.2
20260902085000 76 0 0.0 0.0 0.00 0.00 0.00 86 1016.2
20260902084856 76 0 0.0 0.0 0.00 0.00 0.00 86 1016.2
20260902084749 76 0 0.0 0.0 0.00 0.00 0.00 86 1016.2
20260902084644 76 0 0.0 0.0 0.00 0.00 0.00 86 1016.2
20260902084535 76 0 0.0 0.0 0.00 0.00 0.00 86 1016.2
20260902084214 76 0 0.0 0.0 0.00 0.00 0.00 86 1016.2
20260902083852 76 0 0.0 0.0 0.00 0.00 0.00 86 1016.2
20260902083749 76 0 0.0 0.0 0.00 0.00 0.00 86 1016.1
20260902083645 76 0 0.0 0.0 0.00 0.00 0.00 86 1016.1
20260902083539 76 0 0.0 0.0 0.00 0.00 0.00 86 1016.1
20260902083437 76 0 0.0 0.0 0.00 0.00 0.00 86 1016.1
20260902083331 76 0 0.0 0.0 0.00 0.00 0.00 86 1016.1
20260902083223 76 0 0.0 0.0 0.00 0.00 0.00 86 1016.1
20260902083119 76 0 0.0 0.0 0.00 0.00 0.00 86 1016.1
20260902083014 76 0 0.0 0.0 0.00 0.00 0.00 86 1016.1
20260902082909 76 0 0.0 0.0 0.00 0.00 0.00 86 1016.1
20260902082540 76 0 0.0 0.0 0.00 0.00 0.00 85 1016.1
20260902082434 76 0 0.0 0.0 0.00 0.00 0.00 85 1016.1
20260902082331 76 0 0.0 0.0 0.00 0.00 0.00 85 1016.1
20260902082226 76 0 0.0 0.0 0.00 0.00 0.00 85 1016.1
20260902082122 76 0 0.0 0.0 0.00 0.00 0.00 85 1016.1
20260902081757 76 0 0.0 0.0 0.00 0.00 0.00 85 1016.1
20260902081653 76 0 0.0 0.0 0.00 0.00 0.00 84 1016.1
20260902081547 76 0 0.0 0.0 0.00 0.00 0.00 84 1016.0
20260902081440 76 0 0.0 0.0 0.00 0.00 0.00 84 1016.0
20260902081334 76 0 0.0 0.0 0.00 0.00 0.00 84 1016.0
20260902081227 76 0 0.0 0.0 0.00 0.00 0.00 84 1016.0
20260902081122 76 0 0.0 0.0 0.00 0.00 0.00 84 1016.0
20260902081017 76 0 0.0 0.0 0.00 0.00 0.00 84 1016.0
20260902080915 76 0 0.0 0.0 0.00 0.00 0.00 84 1016.0
20260902080550 76 0 0.0 0.0 0.00 0.00 0.00 85 1016.0
20260902080443 76 0 0.0 0.0 0.00 0.00 0.00 85 1016.0
20260902080340 76 0 0.0 0.0 0.00 0.00 0.00 84 1016.0
20260902080234 76 0 0.0 0.0 0.00 0.00 0.00 84 1016.0
20260902080130 76 0 0.0 0.0 0.00 0.00 0.00 84 1016.1
20260902080028 76 0 0.0 0.0 0.00 0.00 0.00 84 1016.0
20260902075926 76 0 0.0 0.0 0.00 0.00 0.00 84 1016.0
20260902075824 76 0 0.0 0.0 0.00 0.00 0.00 84 1016.1
20260902075718 76 0 0.0 0.0 0.00 0.00 0.00 84 1016.1
20260902075614 76 0 0.0 0.0 0.00 0.00 0.00 84 1016.1
20260902075033 76 0 0.0 0.0 0.00 0.00 0.00 84 1016.1
20260902074929 76 0 0.0 0.0 0.00 0.00 0.00 84 1016.1
20260902074822 76 0 0.0 0.0 0.00 0.00 0.00 84 1016.1
20260902074717 76 0 0.0 0.0 0.00 0.00 0.00 84 1016.1
20260902074611 76 0 0.0 0.0 0.00 0.00 0.00 84 1016.1
20260902074505 76 0 0.0 0.0 0.00 0.00 0.00 84 1016.1
20260902074356 76 0 0.0 0.0 0.00 0.00 0.00 84 1016.1
20260902074253 76 0 0.0 0.0 0.00 0.00 0.00 84 1016.0
20260902074148 76 0 0.0 0.0 0.00 0.00 0.00 84 1016.1
20260902073829 76 0 0.0 0.0 0.00 0.00 0.00 84 1016.0
20260902073723 76 0 0.0 0.0 0.00 0.00 0.00 84 1016.0
20260902073619 76 0 0.0 0.0 0.00 0.00 0.00 83 1016.0
20260902073259 76 0 0.0 0.0 0.00 0.00 0.00 83 1016.0
20260902073158 76 0 0.0 0.0 0.00 0.00 0.00 83 1016.1
20260902073054 76 0 0.0 0.0 0.00 0.00 0.00 83 1016.0
20260902072948 76 0 0.0 0.0 0.00 0.00 0.00 83 1016.0
20260902072843 76 0 0.0 0.0 0.00 0.00 0.00 83 1016.0
20260902072741 76 0 0.0 0.0 0.00 0.00 0.00 84 1016.0
20260902072202 76 0 0.0 0.0 0.00 0.00 0.00 84 1016.0
20260902072059 76 0 0.0 0.0 0.00 0.00 0.00 84 1016.0
20260902071733 76 311 0.0 1.0 0.00 0.00 0.00 84 1016.0
20260902071628 76 311 0.0 1.0 0.00 0.00 0.00 84 1016.0
20260902071526 76 312 0.0 1.0 0.00 0.00 0.00 84 1016.0
20260902071420 76 315 0.0 1.0 0.00 0.00 0.00 84 1016.0
20260902071313 76 304 0.0 1.0 0.00 0.00 0.00 84 1016.0
20260902071206 76 38 0.0 0.0 0.00 0.00 0.00 84 1015.9
20260902071102 76 38 0.0 0.0 0.00 0.00 0.00 84 1015.9
20260902070957 76 38 0.0 0.0 0.00 0.00 0.00 84 1015.9
20260902070854 76 38 0.0 0.0 0.00 0.00 0.00 84 1015.9
20260902070749 76 38 0.0 0.0 0.00 0.00 0.00 84 1015.9
20260902070644 76 38 0.0 0.0 0.00 0.00 0.00 84 1015.9
20260902070542 76 38 0.0 0.0 0.00 0.00 0.00 84 1015.9
20260902070439 76 38 0.0 0.0 0.00 0.00 0.00 84 1015.9
20260902070335 76 38 0.0 0.0 0.00 0.00 0.00 83 1015.9
20260902070233 76 38 0.0 0.0 0.00 0.00 0.00 83 1015.9
20260902065910 76 38 0.0 0.0 0.00 0.00 0.00 83 1015.9
20260902065803 76 38 0.0 0.0 0.00 0.00 0.00 83 1016.0
20260902065701 76 38 0.0 0.0 0.00 0.00 0.00 83 1016.0
20260902065333 76 38 0.0 0.0 0.00 0.00 0.00 83 1015.9
20260902065010 76 38 0.0 0.0 0.00 0.00 0.00 82 1015.9
20260902064905 76 38 0.0 0.0 0.00 0.00 0.00 82 1015.9
20260902064540 76 355 0.0 0.0 0.00 0.00 0.00 83 1015.8
20260902064436 76 355 0.0 0.0 0.00 0.00 0.00 83 1015.7
20260902063849 76 349 0.0 2.0 0.00 0.00 0.00 84 1015.7
20260902063744 76 349 0.0 2.0 0.00 0.00 0.00 84 1015.7
20260902063642 76 312 0.0 2.0 0.00 0.00 0.00 83 1015.7
20260902063319 76 306 0.0 2.0 0.00 0.00 0.00 84 1015.8
20260902062955 76 319 0.0 2.0 0.00 0.00 0.00 84 1015.8
20260902062848 76 330 0.0 2.0 0.00 0.00 0.00 84 1015.8
20260902062518 76 319 0.0 2.0 0.00 0.00 0.00 84 1015.9
20260902062412 76 315 0.0 2.0 0.00 0.00 0.00 84 1015.9
20260902062306 76 308 0.0 2.0 0.00 0.00 0.00 84 1015.9
20260902062202 76 308 0.0 2.0 0.00 0.00 0.00 84 1015.9
20260902062058 76 9 0.0 1.0 0.00 0.00 0.00 85 1015.9
20260902061950 76 9 0.0 1.0 0.00 0.00 0.00 85 1016.0
20260902061845 76 9 0.0 1.0 0.00 0.00 0.00 85 1016.0
20260902061740 76 9 0.0 1.0 0.00 0.00 0.00 85 1015.9
20260902061526 76 9 0.0 1.0 0.00 0.00 0.00 84 1015.9
20260902061423 76 9 0.0 1.0 0.00 0.00 0.00 85 1015.9
20260902061316 76 30 0.0 1.0 0.00 0.00 0.00 85 1015.9
20260902061213 76 30 0.0 1.0 0.00 0.00 0.00 85 1015.9
20260902060844 76 36 0.0 1.0 0.00 0.00 0.00 85 1015.8
20260902060740 76 36 0.0 1.0 0.00 0.00 0.00 85 1015.8
20260902060633 76 36 0.0 1.0 0.00 0.00 0.00 85 1015.7
20260902060530 76 321 0.0 0.0 0.00 0.00 0.00 84 1015.7
20260902060423 76 321 0.0 0.0 0.00 0.00 0.00 84 1015.7
20260902060319 76 321 0.0 0.0 0.00 0.00 0.00 85 1015.7
20260902060213 76 321 0.0 0.0 0.00 0.00 0.00 85 1015.7
20260902060108 76 321 0.0 0.0 0.00 0.00 0.00 84 1015.7
20260902055741 76 321 0.0 0.0 0.00 0.00 0.00 84 1015.6
20260902055636 76 321 0.0 0.0 0.00 0.00 0.00 84 1015.6
20260902055532 76 321 0.0 0.0 0.00 0.00 0.00 84 1015.7
20260902055424 76 321 0.0 0.0 0.00 0.00 0.00 84 1015.6
20260902055317 76 321 0.0 0.0 0.00 0.00 0.00 84 1015.6
20260902055212 76 321 0.0 0.0 0.00 0.00 0.00 84 1015.6
20260902055107 76 321 0.0 1.0 0.00 0.00 0.00 85 1015.6
20260902055006 76 321 0.0 1.0 0.00 0.00 0.00 85 1015.7
20260902054858 76 321 0.0 0.0 0.00 0.00 0.00 85 1015.7
20260902054751 76 342 0.0 0.0 0.00 0.00 0.00 85 1015.7
20260902054424 76 5 0.0 0.0 0.00 0.00 0.00 85 1015.7
20260902054318 76 5 0.0 0.0 0.00 0.00 0.00 85 1015.7
20260902054214 76 5 0.0 0.0 0.00 0.00 0.00 85 1015.7
20260902053847 76 5 0.0 0.0 0.00 0.00 0.00 86 1015.7
20260902053743 76 5 0.0 0.0 0.00 0.00 0.00 86 1015.7
20260902053639 76 5 0.0 0.0 0.00 0.00 0.00 86 1015.7
20260902053535 76 5 0.0 0.0 0.00 0.00 0.00 86 1015.7
20260902053432 77 5 0.0 0.0 0.00 0.00 0.00 86 1015.7
20260902053330 77 5 0.0 0.0 0.00 0.00 0.00 86 1015.7
20260902053004 77 5 0.0 1.0 0.00 0.00 0.00 86 1015.6
20260902052859 76 26 0.0 1.0 0.00 0.00 0.00 86 1015.6
20260902052538 77 17 0.0 1.0 0.00 0.00 0.00 86 1015.6
20260902052436 77 60 0.0 1.0 0.00 0.00 0.00 86 1015.5
20260902052329 77 38 0.0 1.0 0.00 0.00 0.00 86 1015.5
20260902052225 77 5 0.0 1.0 0.00 0.00 0.00 86 1015.5
20260902052120 77 5 0.0 1.0 0.00 0.00 0.00 86 1015.5
20260902052018 77 47 0.0 1.0 0.00 0.00 0.00 86 1015.5
20260902051914 77 52 0.0 1.0 0.00 0.00 0.00 86 1015.5
20260902051810 77 242 0.0 1.0 0.00 0.00 0.00 86 1015.5
20260902051703 77 242 0.0 1.0 0.00 0.00 0.00 86 1015.5
20260902051557 77 255 0.0 1.0 0.00 0.00 0.00 86 1015.5
20260902051452 77 286 0.0 1.0 0.00 0.00 0.00 86 1015.5
20260902051347 77 267 0.0 1.0 0.00 0.00 0.00 86 1015.5
20260902051024 77 297 0.0 1.0 0.00 0.00 0.00 86 1015.5
20260902050920 77 270 0.0 1.0 0.00 0.00 0.00 86 1015.5
20260902050815 77 50 0.0 1.0 0.00 0.00 0.00 86 1015.5
20260902050713 77 50 0.0 1.0 0.00 0.00 0.00 85 1015.5
20260902050607 77 232 0.0 1.0 0.00 0.00 0.00 85 1015.5
20260902050458 77 232 0.0 1.0 0.00 0.00 0.00 85 1015.5
20260902050134 77 149 0.0 1.0 0.00 0.00 0.00 85 1015.5
20260902045810 77 163 0.0 1.0 0.00 0.00 0.00 86 1015.5
20260902045704 77 238 0.0 1.0 0.00 0.00 0.00 86 1015.4
20260902045344 77 284 0.0 1.0 0.00 0.00 0.00 85 1015.4
20260902045239 77 216 0.0 1.0 0.00 0.00 0.00 85 1015.4
20260902045135 77 148 0.0 1.0 0.00 0.00 0.00 85 1015.4
20260902044808 77 149 0.0 1.0 0.00 0.00 0.00 85 1015.4
20260902044706 77 149 0.0 1.0 0.00 0.00 0.00 85 1015.4
20260902044600 77 149 0.0 1.0 0.00 0.00 0.00 85 1015.4
20260902044456 77 149 0.0 1.0 0.00 0.00 0.00 85 1015.3
20260902044352 78 149 0.0 1.0 0.00 0.00 0.00 85 1015.4
20260902044244 78 149 0.0 1.0 0.00 0.00 0.00 85 1015.4
20260902044138 78 149 0.0 1.0 0.00 0.00 0.00 85 1015.4
20260902043815 78 157 0.0 0.0 0.00 0.00 0.00 85 1015.4
20260902043710 78 157 0.0 0.0 0.00 0.00 0.00 85 1015.4
20260902043349 78 157 0.0 0.0 0.00 0.00 0.00 85 1015.4
20260902043244 78 157 0.0 0.0 0.00 0.00 0.00 85 1015.4
20260902043140 78 157 0.0 0.0 0.00 0.00 0.00 85 1015.4
20260902043037 78 157 0.0 1.0 0.00 0.00 0.00 85 1015.4
20260902042932 78 157 0.0 1.0 0.00 0.00 0.00 85 1015.4
20260902042827 78 157 0.0 1.0 0.00 0.00 0.00 85 1015.4
20260902042719 78 157 0.0 1.0 0.00 0.00 0.00 85 1015.4
20260902042617 78 157 0.0 0.0 0.00 0.00 0.00 85 1015.3
20260902042511 78 157 0.0 0.0 0.00 0.00 0.00 85 1015.4
20260902042404 78 157 0.0 0.0 0.00 0.00 0.00 85 1015.4
20260902042301 78 157 0.0 0.0 0.00 0.00 0.00 84 1015.4
20260902042158 78 157 0.0 0.0 0.00 0.00 0.00 84 1015.4
20260902042054 78 157 0.0 0.0 0.00 0.00 0.00 84 1015.5
20260902041949 78 157 0.0 0.0 0.00 0.00 0.00 84 1015.5
20260902041842 78 157 0.0 0.0 0.00 0.00 0.00 84 1015.5
20260902041739 78 157 0.0 0.0 0.00 0.00 0.00 84 1015.5
20260902041634 78 157 0.0 0.0 0.00 0.00 0.00 84 1015.6
20260902041527 78 157 0.0 0.0 0.00 0.00 0.00 84 1015.6
20260902041422 78 157 0.0 0.0 0.00 0.00 0.00 83 1015.6
20260902041055 78 157 0.0 0.0 0.00 0.00 0.00 83 1015.6
20260902040952 78 157 0.0 0.0 0.00 0.00 0.00 83 1015.6
20260902040848 78 157 0.0 0.0 0.00 0.00 0.00 83 1015.6
20260902040523 78 157 0.0 0.0 0.00 0.00 0.00 83 1015.5
20260902040156 78 157 0.0 0.0 0.00 0.00 0.00 83 1015.5
20260902040048 78 157 0.0 0.0 0.00 0.00 0.00 82 1015.5
20260902035944 78 157 0.0 0.0 0.00 0.00 0.00 82 1015.5
20260902035621 78 157 0.0 0.0 0.00 0.00 0.00 82 1015.4
20260902035513 78 157 0.0 0.0 0.00 0.00 0.00 82 1015.4
20260902035410 78 157 0.0 0.0 0.00 0.00 0.00 82 1015.4
20260902035041 78 157 0.0 0.0 0.00 0.00 0.00 83 1015.3
20260902034937 78 157 0.0 0.0 0.00 0.00 0.00 83 1015.2
20260902034832 78 157 0.0 0.0 0.00 0.00 0.00 83 1015.2
20260902034508 78 157 0.0 0.0 0.00 0.00 0.00 83 1015.1
20260902034404 78 157 0.0 0.0 0.00 0.00 0.00 83 1015.0
20260902034035 78 157 0.0 0.0 0.00 0.00 0.00 83 1015.0
20260902033929 78 157 0.0 0.0 0.00 0.00 0.00 83 1015.0
20260902033825 78 157 0.0 0.0 0.00 0.00 0.00 83 1014.9
20260902033720 78 157 0.0 0.0 0.00 0.00 0.00 83 1014.9
20260902033612 78 157 0.0 0.0 0.00 0.00 0.00 83 1014.8
20260902033021 78 157 0.0 0.0 0.00 0.00 0.00 83 1014.8
20260902032656 78 202 0.0 0.0 0.00 0.00 0.00 83 1014.6
20260902032330 78 213 0.0 0.0 0.00 0.00 0.00 83 1014.5
20260902032227 78 213 0.0 0.0 0.00 0.00 0.00 83 1014.6
20260902032121 78 310 0.0 0.0 0.00 0.00 0.00 83 1014.6
20260902031759 78 310 0.0 1.0 0.00 0.00 0.00 84 1014.6
20260902031657 79 310 0.0 1.0 0.00 0.00 0.00 84 1014.6
20260902031554 79 310 0.0 1.0 0.00 0.00 0.00 83 1014.6
20260902031449 78 310 0.0 1.0 0.00 0.00 0.00 83 1014.6
20260902031345 78 310 0.0 1.0 0.00 0.00 0.00 83 1014.6
20260902031238 78 310 0.0 1.0 0.00 0.00 0.00 83 1014.5
20260902031136 79 310 0.0 1.0 0.00 0.00 0.00 83 1014.6
20260902030325 79 232 0.0 0.0 0.00 0.00 0.00 83 1014.5
20260902030223 79 232 0.0 0.0 0.00 0.00 0.00 83 1014.5
20260902030116 79 232 0.0 0.0 0.00 0.00 0.00 83 1014.5
20260902030012 79 232 0.0 1.0 0.00 0.00 0.00 84 1014.5
20260902025910 79 232 0.0 1.0 0.00 0.00 0.00 83 1014.5
20260902025805 79 232 0.0 1.0 0.00 0.00 0.00 83 1014.5
20260902025445 79 232 0.0 0.0 0.00 0.00 0.00 84 1014.5
20260902025340 79 232 0.0 0.0 0.00 0.00 0.00 84 1014.6
20260902025234 79 232 0.0 0.0 0.00 0.00 0.00 84 1014.6
20260902025129 79 232 0.0 0.0 0.00 0.00 0.00 84 1014.5
20260902025024 79 232 0.0 0.0 0.00 0.00 0.00 84 1014.6
20260902024919 79 232 0.0 0.0 0.00 0.00 0.00 84 1014.6
20260902024812 79 232 0.0 0.0 0.00 0.00 0.00 84 1014.6
20260902024711 79 232 0.0 0.0 0.00 0.00 0.00 84 1014.6
20260902024348 79 232 0.0 0.0 0.00 0.00 0.00 84 1014.6
20260902024244 79 232 0.0 0.0 0.00 0.00 0.00 84 1014.7
20260902023919 79 232 0.0 0.0 0.00 0.00 0.00 84 1014.8
20260902023816 79 232 0.0 0.0 0.00 0.00 0.00 84 1014.8
20260902023712 79 232 0.0 0.0 0.00 0.00 0.00 84 1014.7
20260902023609 79 232 0.0 0.0 0.00 0.00 0.00 84 1014.8
20260902023025 79 232 0.0 0.0 0.00 0.00 0.00 84 1014.8
20260902022919 79 232 0.0 0.0 0.00 0.00 0.00 84 1014.8
20260902022814 79 232 0.0 0.0 0.00 0.00 0.00 84 1014.8
20260902022711 79 232 0.0 0.0 0.00 0.00 0.00 84 1014.8
20260902022606 79 232 0.0 0.0 0.00 0.00 0.00 84 1014.8
20260902022500 79 232 0.0 0.0 0.00 0.00 0.00 84 1014.8
20260902022354 79 232 0.0 0.0 0.00 0.00 0.00 84 1014.7
20260902022028 79 232 0.0 0.0 0.00 0.00 0.00 85 1014.7
20260902021925 79 232 0.0 0.0 0.00 0.00 0.00 85 1014.7
20260902021559 79 232 0.0 0.0 0.00 0.00 0.00 85 1014.6
20260902021458 79 232 0.0 0.0 0.00 0.00 0.00 84 1014.6
20260902021131 79 232 0.0 0.0 0.00 0.00 0.00 84 1014.7
20260902021029 80 232 0.0 0.0 0.00 0.00 0.00 84 1014.7
20260902020701 80 232 0.0 0.0 0.00 0.00 0.00 84 1014.7
20260902020559 80 232 0.0 0.0 0.00 0.00 0.00 84 1014.6
20260902020455 80 232 0.0 0.0 0.00 0.00 0.00 84 1014.6
20260902020351 80 232 0.0 0.0 0.00 0.00 0.00 84 1014.6
20260902020246 80 232 0.0 0.0 0.00 0.00 0.00 84 1014.6
20260902015654 80 232 0.0 0.0 0.00 0.00 0.00 83 1014.5
20260902015547 80 232 0.0 0.0 0.00 0.00 0.00 83 1014.6
20260902015442 80 232 0.0 0.0 0.00 0.00 0.00 83 1014.6
20260902015334 80 232 0.0 0.0 0.00 0.00 0.00 84 1014.5
20260902015232 80 232 0.0 0.0 0.00 0.00 0.00 84 1014.5
20260902015128 80 232 0.0 0.0 0.00 0.00 0.00 84 1014.5
20260902015019 80 232 0.0 0.0 0.00 0.00 0.00 84 1014.5
20260902014913 80 232 0.0 0.0 0.00 0.00 0.00 84 1014.5
20260902014807 80 232 0.0 0.0 0.00 0.00 0.00 84 1014.5
20260902014700 80 232 0.0 0.0 0.00 0.00 0.00 83 1014.4
20260902014556 80 232 0.0 0.0 0.00 0.00 0.00 83 1014.5
20260902014451 80 232 0.0 0.0 0.00 0.00 0.00 83 1014.5
20260902014346 80 232 0.0 0.0 0.00 0.00 0.00 83 1014.5
20260902014242 80 232 0.0 0.0 0.00 0.00 0.00 83 1014.5
20260902014139 80 232 0.0 0.0 0.00 0.00 0.00 83 1014.5
20260902014036 80 232 0.0 0.0 0.00 0.00 0.00 83 1014.5
20260902013927 80 232 0.0 0.0 0.00 0.00 0.00 83 1014.5
20260902013820 80 232 0.0 0.0 0.00 0.00 0.00 83 1014.5
20260902013714 80 232 0.0 0.0 0.00 0.00 0.00 83 1014.5
20260902013607 81 232 0.0 0.0 0.00 0.00 0.00 83 1014.5
20260902013459 81 232 0.0 0.0 0.00 0.00 0.00 83 1014.5
20260902013354 81 232 0.0 0.0 0.00 0.00 0.00 83 1014.4
20260902013252 81 232 0.0 0.0 0.00 0.00 0.00 83 1014.4
20260902013148 81 232 0.0 0.0 0.00 0.00 0.00 83 1014.3
20260902013045 81 232 0.0 0.0 0.00 0.00 0.00 83 1014.3
20260902012940 81 232 0.0 0.0 0.00 0.00 0.00 82 1014.3
20260902012619 81 232 0.0 0.0 0.00 0.00 0.00 82 1014.2
20260902012514 81 232 0.0 0.0 0.00 0.00 0.00 82 1014.2
20260902012406 81 232 0.0 0.0 0.00 0.00 0.00 82 1014.2
20260902012038 81 232 0.0 0.0 0.00 0.00 0.00 82 1014.1
20260902011930 81 232 0.0 0.0 0.00 0.00 0.00 82 1014.2
20260902011826 81 232 0.0 0.0 0.00 0.00 0.00 82 1014.1
20260902011501 81 232 0.0 0.0 0.00 0.00 0.00 81 1014.1
20260902011357 81 232 0.0 0.0 0.00 0.00 0.00 81 1014.0
20260902011031 81 232 0.0 0.0 0.00 0.00 0.00 81 1013.9
20260902010926 81 232 0.0 0.0 0.00 0.00 0.00 81 1013.9
20260902010819 81 232 0.0 0.0 0.00 0.00 0.00 81 1013.8
20260902010716 81 232 0.0 0.0 0.00 0.00 0.00 81 1013.8
20260902010613 81 232 0.0 0.0 0.00 0.00 0.00 81 1013.7
20260902010512 81 232 0.0 0.0 0.00 0.00 0.00 82 1013.7
20260902010409 81 232 0.0 0.0 0.00 0.00 0.00 81 1013.7
20260902010302 82 232 0.0 0.0 0.00 0.00 0.00 81 1013.7
20260902010200 82 232 0.0 0.0 0.00 0.00 0.00 81 1013.7
20260902010058 82 232 0.0 0.0 0.00 0.00 0.00 81 1013.7
20260902005953 82 232 0.0 0.0 0.00 0.00 0.00 80 1013.7
20260902005847 82 232 0.0 0.0 0.00 0.00 0.00 81 1013.7
20260902005740 82 232 0.0 0.0 0.00 0.00 0.00 80 1013.7
20260902005413 82 232 0.0 0.0 0.00 0.00 0.00 80 1013.7
20260902005308 82 232 0.0 0.0 0.00 0.00 0.00 81 1013.6
20260902005205 82 232 0.0 0.0 0.00 0.00 0.00 80 1013.6
20260902004841 82 232 0.0 0.0 0.00 0.00 0.00 79 1013.7
20260902004735 82 232 0.0 0.0 0.00 0.00 0.00 79 1013.7
20260902004630 82 232 0.0 0.0 0.00 0.00 0.00 79 1013.7
20260902004527 82 232 0.0 0.0 0.00 0.00 0.00 79 1013.6
20260902003945 82 232 0.0 0.0 0.00 0.00 0.00 79 1013.5
20260902003839 83 232 0.0 0.0 0.00 0.00 0.00 79 1013.5
20260902003732 83 232 0.0 0.0 0.00 0.00 0.00 79 1013.4
20260902003628 83 232 0.0 0.0 0.00 0.00 0.00 79 1013.4
20260902003523 83 232 0.0 0.0 0.00 0.00 0.00 79 1013.4
20260902003416 83 232 0.0 0.0 0.00 0.00 0.00 79 1013.4
20260902003311 83 232 0.0 0.0 0.00 0.00 0.00 79 1013.4
20260902003209 83 232 0.0 0.0 0.00 0.00 0.00 79 1013.4
20260902003106 83 232 0.0 0.0 0.00 0.00 0.00 79 1013.4
20260902002958 83 232 0.0 0.0 0.00 0.00 0.00 79 1013.3
20260902002854 83 232 0.0 0.0 0.00 0.00 0.00 79 1013.3
20260902002749 83 232 0.0 0.0 0.00 0.00 0.00 79 1013.3
20260902002643 83 232 0.0 0.0 0.00 0.00 0.00 78 1013.3
20260902002540 83 232 0.0 0.0 0.00 0.00 0.00 78 1013.3
20260902002218 83 232 0.0 0.0 0.00 0.00 0.00 78 1013.3
20260902001853 83 232 0.0 0.0 0.00 0.00 0.00 78 1013.3
20260902001525 84 232 0.0 0.0 0.00 0.00 0.00 77 1013.1
20260902001422 84 232 0.0 0.0 0.00 0.00 0.00 78 1013.1
20260902001318 84 232 0.0 0.0 0.00 0.00 0.00 78 1013.1
20260902001213 84 232 0.0 1.0 0.00 0.00 0.00 78 1013.1
20260902001107 84 232 0.0 1.0 0.00 0.00 0.00 77 1013.0
20260902000743 84 232 0.0 1.0 0.00 0.00 0.00 77 1013.0
20260902000637 84 202 0.0 1.0 0.00 0.00 0.00 77 1013.0
20260902000053 84 202 0.0 0.0 0.00 0.00 0.00 77 1013.0
20260901235946 84 202 0.0 0.0 0.00 0.00 0.00 77 1012.9
20260901235840 84 202 0.0 0.0 0.00 0.00 0.00 77 1013.0
20260901235737 84 202 0.0 0.0 0.00 0.00 0.00 77 1012.9
20260901235414 85 202 0.0 0.0 0.00 0.00 0.00 77 1012.9
20260901235308 85 202 0.0 0.0 0.00 0.00 0.00 77 1012.9
20260901235203 85 202 0.0 0.0 0.00 0.00 0.00 77 1012.8
20260901235057 85 202 0.0 0.0 0.00 0.00 0.00 77 1012.9
20260901234955 85 202 0.0 0.0 0.00 0.00 0.00 77 1012.9
20260901234852 85 202 0.0 0.0 0.00 0.00 0.00 77 1013.0
20260901234748 85 202 0.0 0.0 0.00 0.00 0.00 77 1012.9
20260901234422 85 202 0.0 0.0 0.00 0.00 0.00 77 1012.9
20260901234315 85 202 0.0 0.0 0.00 0.00 0.00 77 1012.8
20260901234211 85 202 0.0 0.0 0.00 0.00 0.00 77 1012.9
20260901234105 85 202 0.0 0.0 0.00 0.00 0.00 77 1012.9
20260901234000 85 202 0.0 0.0 0.00 0.00 0.00 77 1012.9
20260901233857 85 202 0.0 0.0 0.00 0.00 0.00 77 1012.9
20260901233750 85 202 0.0 0.0 0.00 0.00 0.00 77 1012.9
20260901233644 85 202 0.0 0.0 0.00 0.00 0.00 77 1012.9
20260901233539 85 202 0.0 0.0 0.00 0.00 0.00 77 1012.9
20260901233435 85 202 0.0 0.0 0.00 0.00 0.00 77 1012.9
20260901233329 85 202 0.0 0.0 0.00 0.00 0.00 77 1013.0
20260901233225 85 202 0.0 0.0 0.00 0.00 0.00 77 1013.0
20260901233118 85 202 0.0 0.0 0.00 0.00 0.00 77 1013.0
20260901233016 85 202 0.0 0.0 0.00 0.00 0.00 77 1012.9
20260901232911 85 202 0.0 0.0 0.00 0.00 0.00 76 1013.0
20260901232809 85 202 0.0 0.0 0.00 0.00 0.00 76 1013.0
20260901232704 85 202 0.0 0.0 0.00 0.00 0.00 76 1013.0
20260901232600 85 202 0.0 0.0 0.00 0.00 0.00 76 1013.0
20260901232456 86 202 0.0 0.0 0.00 0.00 0.00 76 1013.0
20260901232350 86 202 0.0 0.0 0.00 0.00 0.00 76 1013.0
20260901232242 86 202 0.0 0.0 0.00 0.00 0.00 76 1013.1
20260901232138 86 202 0.0 0.0 0.00 0.00 0.00 76 1013.0
20260901232031 86 202 0.0 0.0 0.00 0.00 0.00 75 1013.0
20260901231929 86 202 0.0 0.0 0.00 0.00 0.00 76 1013.1
20260901231821 86 202 0.0 0.0 0.00 0.00 0.00 76 1013.1
20260901231715 86 202 0.0 0.0 0.00 0.00 0.00 74 1013.1
20260901231613 86 202 0.0 0.0 0.00 0.00 0.00 74 1013.1
20260901231508 86 202 0.0 0.0 0.00 0.00 0.00 75 1013.1
20260901231405 86 202 0.0 0.0 0.00 0.00 0.00 75 1013.1
20260901231302 86 228 0.0 0.0 0.00 0.00 0.00 76 1013.1
20260901230936 86 227 0.0 0.0 0.00 0.00 0.00 77 1013.0
20260901230832 86 228 0.0 0.0 0.00 0.00 0.00 77 1013.1
20260901230726 86 227 0.0 0.0 0.00 0.00 0.00 77 1013.0
20260901230403 86 227 0.0 0.0 0.00 0.00 0.00 77 1013.1
20260901230259 86 227 0.0 0.0 0.00 0.00 0.00 77 1013.1
20260901230152 86 227 0.0 0.0 0.00 0.00 0.00 77 1013.1
20260901230050 86 227 0.0 0.0 0.00 0.00 0.00 77 1013.1
20260901225506 86 227 0.0 0.0 0.00 0.00 0.00 76 1013.1
20260901225358 86 227 0.0 0.0 0.00 0.00 0.00 76 1013.1
20260901225254 86 227 0.0 0.0 0.00 0.00 0.00 76 1013.1
20260901225152 86 272 0.0 0.0 0.00 0.00 0.00 76 1013.1
20260901225047 86 272 0.0 0.0 0.00 0.00 0.00 76 1013.1
20260901224940 87 254 0.0 0.0 0.00 0.00 0.00 76 1013.1
20260901224834 86 254 0.0 0.0 0.00 0.00 0.00 76 1013.1
20260901224730 87 254 0.0 0.0 0.00 0.00 0.00 76 1013.1
20260901224624 87 254 0.0 0.0 0.00 0.00 0.00 75 1013.1
20260901224519 87 254 0.0 0.0 0.00 0.00 0.00 75 1013.1
20260901224416 87 254 0.0 0.0 0.00 0.00 0.00 75 1013.1
20260901224051 87 76 0.0 0.0 0.00 0.00 0.00 75 1013.2
20260901223949 87 76 0.0 0.0 0.00 0.00 0.00 75 1013.1
20260901223620 87 121 0.0 0.0 0.00 0.00 0.00 76 1013.1
20260901223518 87 121 0.0 0.0 0.00 0.00 0.00 76 1013.2
20260901223411 87 121 0.0 1.0 0.00 0.00 0.00 76 1013.1
20260901223308 87 121 0.0 1.0 0.00 0.00 0.00 76 1013.2
20260901223206 87 121 0.0 1.0 0.00 0.00 0.00 76 1013.2
20260901223057 87 121 0.0 1.0 0.00 0.00 0.00 76 1013.2
20260901222953 87 121 0.0 1.0 0.00 0.00 0.00 76 1013.2
20260901222622 87 121 0.0 1.0 0.00 0.00 0.00 75 1013.2
20260901222515 87 121 0.0 1.0 0.00 0.00 0.00 75 1013.2
20260901222408 87 86 0.0 1.0 0.00 0.00 0.00 75 1013.2
20260901222301 87 86 0.0 1.0 0.00 0.00 0.00 75 1013.2
20260901221940 87 246 0.0 0.0 0.00 0.00 0.00 75 1013.1
20260901221614 88 229 0.0 0.0 0.00 0.00 0.00 75 1013.2
20260901221509 88 229 0.0 0.0 0.00 0.00 0.00 75 1013.3
20260901221402 88 229 0.0 0.0 0.00 0.00 0.00 75 1013.2
20260901221041 88 229 0.0 0.0 0.00 0.00 0.00 75 1013.3
20260901220716 88 225 0.0 0.0 0.00 0.00 0.00 74 1013.4
20260901220348 88 225 0.0 0.0 0.00 0.00 0.00 73 1013.4
20260901220245 88 225 0.0 0.0 0.00 0.00 0.00 73 1013.4
20260901220139 88 225 0.0 0.0 0.00 0.00 0.00 73 1013.4
20260901220033 88 225 0.0 0.0 0.00 0.00 0.00 73 1013.4
20260901215927 88 225 0.0 0.0 0.00 0.00 0.00 73 1013.4
20260901215604 88 225 0.0 0.0 0.00 0.00 0.00 72 1013.5
20260901215502 88 225 0.0 0.0 0.00 0.00 0.00 73 1013.4
20260901215354 88 225 0.0 0.0 0.00 0.00 0.00 73 1013.4
20260901215251 88 265 0.0 0.0 0.00 0.00 0.00 73 1013.4
20260901214926 88 265 0.0 0.0 0.00 0.00 0.00 72 1013.4
20260901214824 88 265 0.0 0.0 0.00 0.00 0.00 72 1013.4
20260901214501 88 265 0.0 0.0 0.00 0.00 0.00 72 1013.5
20260901214356 88 264 0.0 0.0 0.00 0.00 0.00 71 1013.5
20260901214252 88 264 0.0 0.0 0.00 0.00 0.00 71 1013.5
20260901214150 88 264 0.0 0.0 0.00 0.00 0.00 71 1013.5
20260901214043 88 264 0.0 0.0 0.00 0.00 0.00 71 1013.5
20260901213937 88 264 0.0 0.0 0.00 0.00 0.00 71 1013.5
20260901213834 88 264 0.0 0.0 0.00 0.00 0.00 71 1013.5
20260901213729 89 264 0.0 0.0 0.00 0.00 0.00 71 1013.5
20260901213625 89 264 0.0 0.0 0.00 0.00 0.00 71 1013.5
20260901213516 89 264 0.0 0.0 0.00 0.00 0.00 70 1013.5
20260901213149 89 264 0.0 0.0 0.00 0.00 0.00 71 1013.6
20260901213043 89 264 0.0 0.0 0.00 0.00 0.00 71 1013.5
20260901212937 89 264 0.0 0.0 0.00 0.00 0.00 70 1013.5
20260901212834 89 264 0.0 0.0 0.00 0.00 0.00 70 1013.5
20260901212729 89 264 0.0 0.0 0.00 0.00 0.00 70 1013.5
20260901212623 89 264 0.0 0.0 0.00 0.00 0.00 70 1013.5
20260901212044 89 253 0.0 1.0 0.00 0.00 0.00 70 1013.4
20260901211939 89 253 0.0 1.0 0.00 0.00 0.00 69 1013.4
20260901211613 89 292 0.0 3.0 0.00 0.00 0.00 70 1013.3
20260901211508 89 188 0.0 3.0 0.00 0.00 0.00 70 1013.3
20260901211147 89 123 0.0 3.0 0.00 0.00 0.00 70 1013.3
20260901211044 89 214 0.0 3.0 0.00 0.00 0.00 70 1013.3
20260901210938 89 333 0.0 3.0 0.00 0.00 0.00 69 1013.3
20260901210613 89 317 0.0 3.0 0.00 0.00 0.00 69 1013.3
20260901210507 89 317 0.0 3.0 0.00 0.00 0.00 69 1013.3
20260901210400 89 262 0.0 3.0 0.00 0.00 0.00 69 1013.3
20260901210256 89 244 0.0 3.0 0.00 0.00 0.00 69 1013.3
20260901205929 89 163 0.0 3.0 0.00 0.00 0.00 70 1013.3
20260901205823 89 158 0.0 2.0 0.00 0.00 0.00 70 1013.3
20260901205720 89 158 0.0 2.0 0.00 0.00 0.00 70 1013.3
20260901205617 89 139 0.0 2.0 0.00 0.00 0.00 70 1013.3
20260901205513 88 180 0.0 2.0 0.00 0.00 0.00 70 1013.4
20260901205406 88 225 0.0 2.0 0.00 0.00 0.00 69 1013.4
20260901205306 88 253 0.0 2.0 0.00 0.00 0.00 69 1013.4
20260901205200 89 264 0.0 1.0 0.00 0.00 0.00 71 1013.4
20260901205057 89 233 0.0 1.0 0.00 0.00 0.00 71 1013.4
20260901204950 89 150 0.0 1.0 0.00 0.00 0.00 71 1013.4
20260901204843 89 175 0.0 2.0 0.00 0.00 0.00 70 1013.4
20260901204740 89 140 0.0 2.0 0.00 0.00 0.00 70 1013.5
20260901204637 89 140 0.0 2.0 0.00 0.00 0.00 69 1013.4
20260901204530 89 157 0.0 2.0 0.00 0.00 0.00 70 1013.4
20260901204423 89 246 0.0 2.0 0.00 0.00 0.00 70 1013.5
20260901204319 89 163 0.0 2.0 0.00 0.00 0.00 69 1013.4
20260901204217 89 90 0.0 2.0 0.00 0.00 0.00 70 1013.5
20260901203854 89 217 0.0 2.0 0.00 0.00 0.00 69 1013.5
20260901203749 89 204 0.0 4.0 0.00 0.00 0.00 69 1013.5
20260901203644 89 72 0.0 4.0 0.00 0.00 0.00 69 1013.5
20260901203321 89 144 0.0 4.0 0.00 0.00 0.00 67 1013.5
20260901203216 89 30 0.0 4.0 0.00 0.00 0.00 67 1013.5
20260901203109 89 30 0.0 4.0 0.00 0.00 0.00 67 1013.5
20260901203003 89 118 0.0 4.0 0.00 0.00 0.00 67 1013.6
20260901202859 89 209 0.0 4.0 0.00 0.00 0.00 67 1013.5
20260901202757 89 5 0.0 4.0 0.00 0.00 0.00 68 1013.5
20260901202652 89 145 0.0 4.0 0.00 0.00 0.00 68 1013.5
20260901202545 89 158 1.0 4.0 0.00 0.00 0.00 68 1013.5
20260901202439 90 151 1.0 4.0 0.00 0.00 0.00 68 1013.5
20260901202110 90 165 1.0 4.0 0.00 0.00 0.00 66 1013.6
20260901202007 90 188 1.0 4.0 0.00 0.00 0.00 67 1013.5
20260901201900 90 344 1.0 4.0 0.00 0.00 0.00 67 1013.6
20260901201757 90 259 1.0 3.0 0.00 0.00 0.00 66 1013.6
20260901201650 90 155 1.0 4.0 0.00 0.00 0.00 66 1013.6
20260901201544 90 250 1.0 4.0 0.00 0.00 0.00 65 1013.6
20260901201442 90 184 1.0 4.0 0.00 0.00 0.00 64 1013.6
20260901201116 90 268 0.0 4.0 0.00 0.00 0.00 63 1013.7
20260901200531 90 114 0.0 4.0 0.00 0.00 0.00 66 1013.7
20260901200428 90 191 0.0 4.0 0.00 0.00 0.00 68 1013.8
20260901200326 90 168 0.0 4.0 0.00 0.00 0.00 67 1013.8
20260901200223 90 78 0.0 4.0 0.00 0.00 0.00 65 1013.8
20260901200116 90 132 0.0 4.0 0.00 0.00 0.00 64 1013.8
20260901195747 90 53 0.0 4.0 0.00 0.00 0.00 68 1013.9
20260901195644 90 211 0.0 4.0 0.00 0.00 0.00 70 1013.9
20260901195541 90 223 1.0 4.0 0.00 0.00 0.00 69 1013.9
20260901195212 90 200 0.0 4.0 0.00 0.00 0.00 67 1013.9
20260901195105 90 228 0.0 4.0 0.00 0.00 0.00 67 1013.9
20260901195003 90 225 0.0 4.0 0.00 0.00 0.00 67 1013.9
20260901194856 90 155 0.0 4.0 0.00 0.00 0.00 67 1014.0
20260901194751 90 224 0.0 4.0 0.00 0.00 0.00 67 1014.0
20260901194422 90 90 0.0 3.0 0.00 0.00 0.00 68 1013.9
20260901194314 90 225 0.0 3.0 0.00 0.00 0.00 67 1013.9
20260901193952 90 119 0.0 5.0 0.00 0.00 0.00 67 1014.0
20260901193408 91 154 0.0 5.0 0.00 0.00 0.00 65 1014.1
20260901193303 90 177 0.0 5.0 0.00 0.00 0.00 63 1014.1
20260901193158 90 229 0.0 5.0 0.00 0.00 0.00 65 1014.1
20260901193055 90 155 0.0 5.0 0.00 0.00 0.00 67 1014.1
20260901192949 90 214 0.0 5.0 0.00 0.00 0.00 67 1014.1
20260901192843 90 224 0.0 5.0 0.00 0.00 0.00 66 1014.1